Wind_Speed
18 20 19 13 12 13 14 15 17 17 17 18 18 17 12 9 8 12 7 8 10 11 11 11 11 11 10 13 18 20 20 22 21 19 20 23 26 30 34 36 36 36 36 36 36 35 34 35 35 34 36 38 38 39 39 40 43 44 46 47 47 46 44 44 47 50 53 54 53 52 53 52 49 47 42 38 37 37 36 34 33 33 29 25 23 25 26
18 21 20 14 13 13 13 15 17 16 18 20 20 20 17 14 15 15 9 10 12 12 12 12 13 17 17 18 20 19 17 20 22 22 22 23 27 33 36 37 37 37 35 35 34 34 33 33 32 32 33 34 34 34 35 38 40 42 43 45 43 41 41 43 45 47 48 49 49 48 48 50 50 47 42 38 39 41 41 38 36 37 32 24 22 25 26
13 17 17 14 15 16 15 17 16 15 16 17 18 17 14 13 15 13 10 10 10 10 11 10 9 12 12 11 11 14 18 22 22 22 24 25 29 35 38 38 38 36 34 34 34 33 32 30 29 29 29 29 31 33 35 37 38 37 38 39 38 38 39 41 42 43 44 46 47 47 45 46 48 48 46 45 45 44 44 43 41 39 34 26 23 24 25
8 10 14 15 15 15 17 19 17 15 14 13 13 11 9 10 12 9 6 7 7 7 8 7 5 5 7 9 11 15 20 21 22 26 29 30 32 36 37 39 39 36 34 34 33 31 30 29 28 28 28 30 32 33 33 31 30 31 32 33 33 34 36 39 40 40 42 43 44 42 37 36 41 45 49 51 52 50 48 46 45 42 36 28 23 22 23
7 7 10 13 11 10 12 14 15 15 12 11 11 10 10 13 13 9 7 8 8 5 4 6 8 8 9 11 13 17 20 22 25 29 32 34 35 37 40 41 40 37 35 33 31 30 28 27 28 29 29 30 28 24 22 21 21 24 25 26 28 30 32 35 36 37 39 38 38 38 34 33 37 44 49 52 53 54 51 46 43 39 35 30 24 20 23
7 5 4 6 7 9 8 7 11 16 16 16 15 11 11 13 11 6 4 6 6 5 6 8 9 8 7 8 11 16 19 20 24 28 31 32 32 34 37 38 38 37 35 33 31 29 28 29 29 27 23 19 15 13 14 14 16 18 19 20 22 24 27 30 32 34 35 36 36 37 38 38 38 41 47 51 53 54 51 45 39 33 31 32 26 20 24
4 1 3 6 8 8 4 1 4 10 15 18 15 6 4 7 7 4 5 7 6 4 6 6 6 7 8 7 8 11 14 18 21 25 29 28 26 27 28 31 35 36 35 34 32 31 30 28 23 17 12 10 10 10 11 11 11 12 13 14 15 17 21 24 27 30 32 34 36 36 37 39 37 37 42 49 54 53 47 42 38 32 29 30 27 23 28
2 1 4 6 5 1 1 1 2 3 6 10 9 4 2 4 5 6 8 9 5 3 4 5 5 7 9 6 4 5 10 15 17 19 23 26 27 26 23 23 30 34 34 32 30 27 23 18 13 12 13 13 12 11 10 8 7 6 6 7 9 11 15 19 21 25 28 31 33 34 35 37 37 36 39 44 51 51 42 36 37 32 27 28 29 28 30
2 3 4 3 3 3 3 2 3 3 2 5 7 7 6 4 3 6 7 7 5 4 5 7 8 9 9 6 2 3 6 12 15 15 16 17 19 21 19 18 22 25 24 21 18 16 15 16 18 18 17 15 13 11 8 6 5 4 4 4 5 6 9 13 16 19 23 26 29 31 33 34 34 35 38 43 50 50 42 38 40 36 29 30 33 31 30
1 3 4 3 6 6 4 3 3 1 3 3 4 5 5 4 2 6 7 7 7 7 6 8 11 10 6 5 1 7 6 6 10 13 14 12 11 14 15 15 16 17 15 15 17 20 22 22 21 18 16 14 11 9 7 6 5 4 3 2 1 3 6 9 12 15 19 22 25 27 29 31 32 33 36 41 45 46 44 42 41 37 33 36 38 35 33
1 2 5 5 6 4 1 2 2 3 4 3 3 6 6 3 1 3 6 7 7 6 7 11 12 8 5 4 1 8 6 1 5 9 12 12 11 12 13 15 18 20 21 25 27 26 24 21 18 16 14 12 10 9 9 8 6 5 3 2 1 2 5 7 10 13 16 19 21 24 26 28 28 30 33 36 36 38 40 38 36 36 37 39 40 35 32
1 1 4 5 4 1 3 5 7 7 5 2 6 8 5 2 2 2 4 5 6 7 11 12 7 2 3 4 2 5 5 7 9 9 12 14 15 16 19 22 25 28 29 30 28 25 22 19 17 15 13 12 11 11 10 9 8 6 4 3 2 2 4 6 9 11 13 16 19 23 24 25 26 28 32 33 33 34 34 33 32 34 36 36 34 30 28
0 1 3 5 3 1 4 10 12 8 2 5 8 7 2 3 3 2 3 8 9 9 11 10 6 6 9 11 11 14 17 20 21 21 21 21 21 21 22 24 27 29 29 27 24 21 19 17 15 14 12 10 10 10 10 10 9 6 3 2 1 2 4 6 7 8 10 14 18 20 21 21 24 26 27 29 30 32 33 32 31 33 33 31 28 26 25
1 0 3 5 2 3 10 18 15 5 3 4 4 3 3 5 8 10 11 13 16 17 18 18 16 17 18 20 24 28 31 33 33 32 31 31 30 27 25 24 24 25 24 22 19 16 13 11 12 11 9 7 6 7 9 8 5 3 1 1 1 3 4 5 5 5 8 12 14 16 17 19 21 21 21 24 29 33 33 31 30 31 31 27 23 23 22
0 1 2 5 3 4 18 21 11 3 1 2 6 8 7 10 15 18 17 16 18 21 23 23 23 24 26 29 34 37 37 37 37 35 34 34 34 32 29 26 23 22 21 19 16 15 12 10 9 8 6 4 2 2 4 4 3 3 2 1 3 4 4 4 3 4 7 9 10 11 14 17 19 19 20 25 30 30 29 30 30 29 24 20 19 20 20
1 1 1 2 2 9 19 16 3 4 7 9 10 9 9 13 18 21 20 20 23 26 27 27 28 31 34 36 38 38 38 37 36 35 33 32 31 30 29 27 24 22 21 20 17 16 14 11 9 7 6 4 3 2 1 3 4 2 1 3 4 4 4 3 3 4 5 6 7 9 11 14 18 20 24 29 31 29 27 28 27 23 18 18 19 20 18
1 2 1 4 7 12 16 13 8 10 15 18 14 12 12 15 20 24 24 25 28 30 31 32 34 35 35 34 34 33 33 33 33 33 32 30 29 27 26 24 21 20 20 18 16 14 12 11 11 11 9 7 6 5 3 2 2 1 2 3 3 3 3 3 3 4 5 6 7 8 10 14 17 20 24 26 26 26 26 24 21 18 17 18 18 17 15
2 5 1 5 7 11 15 14 11 10 13 16 16 17 18 18 21 25 24 23 25 26 28 31 32 31 30 30 29 27 26 26 26 26 26 25 24 22 21 20 18 16 16 15 13 12 11 11 10 9 9 7 6 5 2 2 2 2 3 3 2 1 3 3 3 5 7 8 8 8 11 14 15 19 23 23 21 23 23 20 17 16 15 14 14 13 13
5 4 3 2 5 9 12 10 9 10 13 16 18 21 22 22 24 25 24 23 23 23 24 26 27 26 26 26 25 23 22 21 20 19 18 18 16 14 14 14 12 10 9 8 8 9 8 6 3 4 5 4 5 6 5 6 6 4 2 2 1 3 4 4 4 6 8 9 10 11 13 14 14 16 21 22 21 21 20 18 17 16 14 14 14 14 14
4 4 7 5 3 4 7 6 5 8 14 20 21 21 22 23 25 25 25 24 23 22 22 22 23 23 23 22 21 20 18 17 16 15 14 13 11 9 8 7 7 7 6 5 6 6 4 3 7 8 8 8 10 10 9 10 9 6 4 3 4 5 5 4 4 7 9 10 12 14 16 16 15 15 17 20 20 20 20 19 17 16 14 14 14 14 13
5 6 7 7 6 3 4 3 4 9 16 22 23 23 24 26 28 29 29 28 26 24 23 22 23 24 22 20 20 19 17 15 14 13 11 10 9 7 6 5 6 7 7 6 5 4 2 4 7 8 8 8 10 11 11 10 8 5 6 6 6 5 5 4 5 7 9 11 14 16 18 19 17 13 14 18 19 19 19 19 17 15 12 11 11 10 9
5 7 12 12 8 4 2 4 6 11 19 24 23 23 24 25 26 27 27 27 26 24 21 20 20 22 21 19 18 18 17 15 13 11 8 6 5 5 5 6 6 6 6 5 5 4 3 3 4 5 6 8 10 10 9 8 7 8 8 7 6 5 5 5 5 6 8 11 15 17 19 20 17 14 14 17 20 20 20 18 16 14 10 9 9 8 8
2 10 19 17 10 8 10 12 11 13 20 24 23 23 24 23 22 22 22 22 22 22 21 19 19 20 20 18 17 17 17 15 12 10 7 4 3 3 2 3 4 3 4 5 6 6 6 6 5 5 6 8 9 9 9 10 10 10 9 7 7 7 7 6 6 6 8 10 13 17 19 19 17 15 16 20 22 20 17 13 12 10 9 9 10 10 11
4 11 16 15 15 17 17 16 15 17 20 22 23 23 23 22 21 22 23 24 23 21 20 20 20 21 21 19 18 18 17 15 12 10 8 6 5 4 2 1 1 1 2 4 6 7 7 7 6 5 4 5 7 10 11 12 12 12 10 8 8 9 10 9 7 8 9 9 11 15 18 19 17 15 17 22 22 16 11 9 8 9 10 11 12 12 13
11 17 18 19 24 26 22 20 20 21 22 22 21 20 18 17 17 18 20 21 20 19 18 17 17 18 18 18 17 16 15 13 12 10 8 7 6 6 5 3 2 1 1 3 5 6 6 6 5 4 3 5 8 10 12 14 14 12 10 9 9 9 10 9 7 7 8 8 9 11 14 17 16 15 18 22 22 16 11 9 9 9 10 12 13 13 14
23 25 28 28 28 26 24 21 20 21 24 24 23 22 21 20 19 20 19 18 16 15 15 15 15 15 15 15 14 13 12 11 10 8 7 6 5 5 5 5 4 2 1 1 3 5 6 5 4 4 5 7 9 10 12 13 14 12 10 9 9 8 7 6 5 5 6 8 9 9 11 14 16 16 17 18 18 17 15 13 12 11 11 12 13 14 15
23 23 25 24 19 19 21 20 17 19 21 22 22 22 22 21 21 20 19 17 16 14 13 13 13 12 11 11 10 9 8 8 7 7 6 6 5 5 5 5 5 4 2 1 2 4 5 5 5 6 7 8 8 9 10 12 14 13 11 10 9 7 6 4 3 4 6 8 9 10 11 13 14 15 15 15 16 16 15 13 12 11 10 10 12 13 14
25 23 23 19 14 14 17 16 16 17 18 18 18 17 16 15 16 15 15 14 13 12 11 11 10 10 9 9 8 6 6 6 6 7 7 6 5 5 5 5 5 5 3 1 2 4 5 6 8 8 8 9 9 9 9 12 14 13 10 9 8 7 6 5 4 5 7 9 9 10 11 12 13 14 14 14 14 13 12 11 10 9 8 9 10 12 14
21 20 22 20 16 15 15 14 13 14 14 13 12 11 10 9 9 9 10 10 9 9 9 9 8 8 8 7 7 7 7 7 7 8 8 7 6 5 4 4 5 5 5 4 1 3 6 7 9 10 10 11 11 11 11 13 15 14 11 8 6 7 8 8 8 8 9 11 11 12 13 14 14 13 12 11 10 9 8 8 8 8 9 10 12 14 16
14 14 17 18 16 14 14 12 11 11 11 10 10 9 9 8 7 7 7 7 7 7 7 7 6 6 6 6 6 7 7 7 8 8 8 7 6 5 5 4 4 5 6 5 3 3 6 8 10 12 14 14 13 13 14 15 16 16 14 9 6 8 10 10 9 9 11 12 13 13 13 12 10 8 7 6 6 5 6 6 7 9 10 12 13 15 16
10 12 15 16 15 14 13 10 8 9 10 9 8 8 8 7 7 7 6 6 6 6 6 5 5 4 4 4 4 4 5 5 6 7 7 7 6 5 5 5 5 5 5 5 4 3 6 9 11 14 16 16 15 15 16 16 17 18 16 12 11 11 10 9 9 9 10 10 10 10 8 7 5 4 4 3 3 4 6 7 8 10 11 12 14 15 16
12 12 12 11 10 9 9 7 6 6 6 6 6 7 8 8 7 7 6 6 5 5 5 4 3 3 3 3 3 4 4 4 5 5 6 7 7 6 5 5 6 6 5 5 4 5 7 9 13 15 16 14 13 15 16 18 19 19 17 15 13 12 11 10 9 9 9 9 8 7 6 5 4 3 3 3 3 4 6 8 10 11 13 14 14 15 15
8 7 6 5 4 4 4 4 4 5 5 4 3 5 6 7 7 7 7 6 6 5 5 4 4 3 3 3 4 4 4 5 5 5 6 7 6 5 5 5 5 5 6 7 7 8 8 10 14 18 17 11 9 10 13 16 18 20 19 16 13 13 12 9 8 7 6 5 4 4 3 3 2 2 3 3 3 4 6 9 11 13 14 14 13 11 12
4 3 5 6 5 3 3 4 4 5 5 5 5 5 6 6 7 7 7 7 7 6 6 5 4 4 4 5 6 6 6 6 7 7 7 7 6 6 5 3 2 3 5 7 9 10 10 11 15 19 19 14 10 9 10 12 14 16 16 15 14 14 11 8 6 5 4 4 5 5 4 4 4 5 5 5 6 8 10 12 13 14 14 13 11 9 10
6 6 7 7 6 5 4 4 4 5 5 5 5 6 6 7 7 7 8 8 8 8 8 8 7 6 6 6 7 7 8 8 8 8 8 7 6 6 6 4 1 1 3 6 8 10 11 11 14 18 20 17 14 13 13 13 13 14 14 14 13 13 11 9 7 6 6 6 7 6 6 6 7 7 8 9 11 13 14 15 14 13 10 10 9 8 10
6 6 5 5 4 3 3 4 4 5 6 6 7 7 7 7 8 8 9 10 10 11 11 10 10 9 7 6 5 6 5 5 6 6 6 6 6 6 4 2 1 2 0 2 4 7 9 11 12 16 18 17 15 12 11 10 11 12 13 12 12 11 10 8 7 6 7 8 9 8 8 8 9 11 12 13 14 13 12 10 10 8 6 6 7 8 9
7 7 6 6 6 6 7 7 7 8 8 8 9 9 9 9 9 10 11 12 13 14 13 12 12 11 9 7 6 6 5 4 3 3 3 4 4 3 2 4 5 4 2 2 3 3 3 4 5 7 10 10 9 10 11 10 9 11 11 10 9 8 6 5 5 6 8 9 9 9 9 10 11 12 12 11 10 9 7 6 5 5 6 6 7 8 9
8 8 8 8 9 9 10 10 9 9 10 11 11 10 10 10 10 11 12 14 15 16 16 15 14 12 9 7 7 7 6 6 5 5 6 6 6 6 7 7 6 4 5 6 8 8 10 10 8 6 6 6 9 13 12 9 8 11 12 9 5 4 6 7 7 8 9 9 9 10 11 11 10 8 7 6 6 7 7 6 5 5 5 6 8 9 10
9 9 9 9 9 9 10 10 9 10 10 11 11 11 11 11 11 12 13 14 16 18 18 16 14 12 10 8 7 7 7 7 7 8 9 9 8 7 8 7 6 5 7 8 8 9 9 9 8 7 7 7 7 8 9 7 7 9 8 6 5 7 9 9 9 9 10 10 10 9 8 6 5 4 3 4 5 6 6 6 5 4 5 6 7 8 10
12 11 10 10 10 10 10 9 9 9 10 11 11 11 11 11 11 11 12 14 15 17 18 16 14 15 14 13 11 11 10 10 11 11 10 9 6 5 5 6 5 4 4 4 4 4 4 4 3 3 4 4 4 6 7 7 6 5 4 5 7 9 9 9 9 10 9 8 6 5 3 2 2 3 3 4 5 5 5 5 5 5 5 6 7 8 10
13 13 13 13 13 13 12 11 10 9 9 9 10 10 10 10 10 11 12 12 12 14 16 16 15 16 17 17 16 15 14 14 13 12 10 8 5 3 3 4 3 2 2 4 6 7 8 8 7 7 8 7 7 7 8 8 7 6 6 7 8 9 9 9 9 8 7 5 4 4 3 2 3 4 5 5 5 6 6 6 5 5 6 6 7 8 9
13 13 14 14 14 14 13 13 12 11 10 10 10 10 10 10 10 10 11 11 11 11 13 14 14 14 15 15 16 16 15 15 14 13 13 12 11 9 8 7 7 7 9 11 11 11 11 11 9 9 8 8 8 8 8 7 7 7 6 6 7 7 8 9 8 8 7 6 6 5 5 4 5 5 6 6 6 7 8 8 7 6 7 8 8 7 8
13 13 13 13 13 13 13 13 13 13 12 12 12 11 11 11 10 10 10 10 10 10 11 12 12 12 12 12 12 13 13 13 13 13 13 14 13 13 12 12 12 12 12 11 10 10 9 8 8 8 8 8 7 7 6 6 5 5 5 6 8 9 9 9 8 7 7 6 5 5 5 5 5 6 7 7 7 8 10 10 10 10 11 12 12 11 10
12 11 11 12 12 12 12 12 13 13 14 13 13 12 12 12 11 11 11 11 10 10 10 10 10 11 10 10 10 10 10 11 11 11 11 12 11 11 11 10 9 9 8 7 7 7 7 7 7 8 8 7 7 6 5 4 4 4 6 7 8 8 7 6 6 6 5 5 4 4 3 3 3 4 5 6 7 9 10 11 12 13 14 15 15 15 15
10 9 9 9 10 10 11 12 12 13 13 12 12 12 13 13 13 12 12 12 12 11 10 10 10 10 10 10 9 8 8 8 8 8 9 9 9 8 7 6 5 5 4 4 4 5 6 7 7 7 6 6 5 4 4 4 4 5 6 6 6 5 4 4 5 5 5 4 3 2 2 2 3 4 5 6 7 8 9 11 13 15 16 16 16 17 18
6 6 6 6 7 8 10 11 12 12 11 10 10 11 12 12 13 13 13 13 13 12 12 11 11 10 10 10 9 8 8 7 7 6 7 7 7 6 5 4 3 3 3 3 3 4 5 6 6 6 6 5 4 3 3 4 5 5 5 5 4 3 3 4 4 5 4 3 3 3 3 4 5 6 7 9 9 10 11 12 13 14 15 16 15 15 17
3 3 3 4 5 7 8 10 12 12 10 8 8 9 10 10 11 12 12 13 13 13 13 12 12 11 11 11 11 10 10 9 8 7 7 6 5 4 3 2 1 2 3 3 3 4 4 5 5 5 5 5 4 3 3 3 4 4 4 4 4 3 3 3 3 3 3 3 4 5 5 6 7 8 9 10 11 12 13 13 13 13 14 14 14 13 13
2 2 2 3 4 5 6 8 10 11 10 8 7 7 8 8 8 9 10 10 11 12 12 12 11 11 11 11 11 11 10 10 9 8 8 7 6 5 4 2 1 3 4 4 4 5 4 4 4 4 4 4 4 4 3 3 3 4 4 4 4 4 4 4 3 3 3 4 5 6 6 7 8 9 10 11 11 11 12 13 12 12 13 14 13 12 11
3 3 4 4 5 5 5 6 7 8 8 7 6 7 7 8 8 8 9 8 9 9 10 10 10 10 10 10 11 11 10 10 9 8 7 7 7 7 6 5 4 4 4 5 5 5 5 4 4 4 5 5 6 5 5 4 3 3 3 4 4 4 4 5 5 6 6 6 6 7 8 9 10 11 11 10 10 10 11 12 11 11 12 13 14 13 13
3 3 4 5 6 7 6 5 4 5 6 6 6 7 8 9 9 9 9 9 9 8 8 8 7 8 8 9 10 10 10 10 9 8 8 7 7 7 7 7 6 6 6 6 7 7 7 7 6 6 7 7 8 7 7 7 6 5 5 4 5 5 5 6 7 7 8 8 9 9 10 11 12 12 12 11 10 11 11 11 11 11 11 12 12 12 13
3 2 2 3 5 7 7 5 3 4 5 6 6 7 8 9 9 9 10 10 10 10 10 9 8 8 8 9 10 10 10 9 9 9 9 8 8 8 8 8 8 8 8 7 7 8 9 9 10 9 9 10 10 10 10 10 10 9 9 9 8 8 8 9 9 9 9 10 10 11 11 12 13 13 13 12 11 12 12 12 12 11 11 10 11 11 12
2 1 1 3 4 5 4 4 4 6 7 8 8 8 8 8 7 8 9 10 11 12 12 11 10 10 10 11 12 12 12 12 12 12 11 11 10 10 9 9 9 9 9 9 9 9 9 11 12 12 13 13 13 13 12 12 12 12 12 12 12 12 13 13 13 13 13 13 13 13 13 13 14 14 14 13 12 12 13 13 12 12 11 11 11 12 13
Wind_Direction
215 223 223 200 191 212 211 210 212 200 194 200 207 219 211 166 200 233 196 170 212 217 208 213 216 213 216 225 227 227 232 236 232 225 219 213 210 210 211 212 214 216 217 218 219 220 221 223 225 226 228 230 233 236 239 240 242 243 246 247 248 248 245 243 244 246 248 248 248 244 233 228 233 238 233 232 233 231 231 233 232 234 235 231 234 240 238
218 223 225 205 196 212 213 211 210 202 200 200 202 214 211 197 219 232 202 188 209 215 215 217 219 219 218 222 226 225 226 227 221 215 212 207 207 210 212 212 213 215 218 219 220 220 221 223 225 227 229 231 233 236 238 240 242 242 244 248 250 248 247 247 249 250 251 252 252 248 235 223 227 236 237 238 239 234 232 233 231 231 230 225 228 237 238
230 229 227 214 207 216 220 216 208 201 204 205 205 211 204 198 218 223 203 203 214 217 220 223 226 226 220 221 221 217 220 218 211 207 208 206 208 212 214 214 213 214 217 219 220 221 222 223 224 227 230 232 235 236 236 239 242 244 246 251 252 250 248 250 251 251 253 253 254 252 238 220 219 228 232 235 241 238 232 232 231 226 223 221 227 233 235
241 228 224 220 213 218 228 229 216 198 198 205 209 209 191 189 207 208 195 211 223 221 221 228 234 217 209 216 217 216 219 215 207 207 208 209 212 214 215 216 214 213 215 218 220 221 221 223 225 228 230 232 233 234 238 244 249 251 253 255 256 253 250 250 252 253 254 257 257 251 233 210 213 226 229 229 235 236 231 229 230 225 220 220 224 229 233
262 240 219 214 207 214 230 233 224 208 195 197 206 205 196 196 200 199 203 219 225 208 186 215 228 218 215 225 223 220 219 215 213 214 214 214 214 213 215 216 214 211 212 216 218 219 222 224 225 227 230 233 237 241 248 254 255 255 257 259 259 256 252 252 254 257 257 256 252 246 237 227 225 227 228 228 231 232 229 227 226 222 217 215 219 225 230
277 269 187 179 199 217 224 224 220 213 202 199 205 205 204 205 203 201 218 227 222 194 180 205 220 215 227 253 249 237 229 223 221 221 221 220 218 217 219 219 215 212 212 215 217 218 221 223 225 230 233 237 243 245 246 248 248 251 256 259 259 258 255 255 257 258 257 253 251 253 254 251 241 230 228 228 228 228 227 224 220 216 212 212 217 224 225
288 333 143 194 224 223 211 174 213 217 213 208 204 189 181 207 214 224 239 231 219 197 198 217 226 216 222 245 260 252 242 235 231 229 227 226 224 224 225 222 217 213 213 215 217 217 220 224 227 229 222 211 209 209 214 222 230 240 249 254 258 260 257 257 258 258 257 255 257 260 260 256 249 241 235 230 224 223 222 217 212 209 210 214 218 221 219
269 271 201 227 258 263 130 89 118 169 202 192 184 174 167 202 218 225 233 235 228 200 210 230 227 196 186 186 211 251 247 239 237 237 236 235 232 232 234 229 223 219 215 216 219 220 221 217 198 179 171 170 174 179 184 190 200 217 233 245 253 256 256 257 259 259 260 260 259 260 260 257 253 248 241 231 224 222 218 212 209 208 209 213 215 218 220
235 267 251 254 296 276 218 178 135 135 170 169 182 201 190 172 194 217 233 253 252 218 205 205 191 173 160 154 130 337 276 237 231 235 238 240 239 239 241 237 230 226 220 215 211 203 187 167 156 154 156 157 160 162 161 157 157 175 200 222 238 247 253 258 261 262 264 264 263 262 261 260 259 255 244 229 222 220 216 211 212 212 212 211 210 214 220
204 269 275 260 253 237 189 144 113 36 316 282 248 221 182 161 201 218 227 244 234 211 183 167 170 172 177 182 95 357 327 242 225 227 220 216 223 229 228 218 210 208 198 176 161 156 152 151 152 154 154 153 149 143 139 136 137 147 155 171 213 251 258 261 267 269 268 268 269 268 264 261 259 252 236 221 215 214 213 213 214 216 217 214 208 209 214
143 261 273 254 244 242 101 40 3 347 322 294 241 211 191 174 212 229 227 230 221 201 165 152 160 171 178 172 22 353 345 205 197 206 194 183 183 190 191 181 171 165 157 149 145 146 147 150 155 156 154 150 146 145 147 149 151 155 159 166 193 255 268 272 274 272 272 274 271 265 260 257 252 239 224 215 212 211 213 216 217 217 215 210 205 206 213
93 246 273 257 242 288 6 345 332 324 311 225 194 202 194 117 22 286 229 198 176 163 150 142 145 168 155 142 73 21 58 114 130 145 150 149 150 152 153 151 148 146 145 145 146 149 150 151 155 156 153 153 157 161 163 171 180 185 188 195 219 262 277 283 281 277 278 276 266 258 256 257 252 237 222 216 216 215 212 210 210 209 205 203 205 213 222
86 184 264 271 260 89 10 336 324 315 275 189 195 202 167 64 36 12 129 135 127 124 126 123 104 83 96 109 108 101 103 106 105 108 116 121 122 126 133 139 143 143 143 145 147 148 150 154 156 155 154 159 171 181 189 196 201 204 205 201 239 282 294 296 293 290 282 269 259 257 259 259 250 233 219 215 215 211 205 203 202 201 201 204 213 225 232
271 148 262 276 242 85 7 339 323 297 212 197 177 136 91 82 83 81 88 101 103 99 97 100 102 102 101 104 104 102 103 103 100 100 104 106 105 106 110 118 126 129 131 134 136 134 135 143 152 156 159 167 186 208 219 221 215 208 203 200 251 286 302 305 298 284 272 264 258 255 256 252 238 220 209 210 209 205 202 201 199 199 204 212 224 234 241
171 100 281 273 226 359 347 335 316 270 242 162 120 106 98 90 88 88 84 84 93 100 101 102 105 105 101 97 95 95 96 96 96 97 101 102 103 104 104 104 107 109 107 106 106 105 104 109 124 138 147 151 166 236 243 226 193 173 186 241 277 290 294 292 282 266 261 258 252 247 246 238 224 209 202 201 200 200 202 201 198 201 211 227 241 247 251
257 122 288 308 317 329 334 334 337 98 97 119 120 107 100 95 93 94 91 87 91 98 103 104 103 100 97 94 92 91 89 89 89 89 90 93 97 101 102 102 106 108 103 95 90 89 89 88 89 89 86 79 67 61 158 177 169 172 243 277 287 292 283 265 249 245 247 240 232 235 231 217 209 210 207 200 197 200 202 200 200 209 225 240 248 250 250
285 121 229 307 324 330 338 358 41 85 106 115 109 98 98 98 97 97 95 92 91 91 94 96 95 94 94 93 92 90 87 87 88 87 86 86 87 89 92 95 100 106 106 101 97 93 87 82 79 75 66 56 52 56 79 143 169 225 291 300 304 292 257 233 222 222 223 217 215 221 215 202 203 209 205 196 196 202 201 198 206 222 236 241 241 240 242
130 99 134 289 320 340 350 9 33 66 96 103 97 95 94 90 94 97 97 97 95 92 93 94 93 94 95 95 93 92 90 89 90 90 90 88 86 86 87 87 88 94 101 104 104 102 96 91 82 60 39 30 24 16 357 259 254 291 306 313 318 252 206 195 193 203 208 206 201 204 208 208 211 213 206 196 194 197 197 202 215 225 229 227 223 224 235
157 126 163 259 337 346 347 1 29 54 78 89 91 93 93 92 95 95 95 97 99 97 96 97 96 97 97 96 95 94 93 93 92 91 91 91 89 88 87 84 84 88 93 102 118 128 125 116 83 2 352 339 314 309 282 247 245 252 260 275 235 184 182 173 178 195 203 203 198 198 202 201 196 199 201 199 197 197 202 208 211 206 203 204 209 222 240
148 138 154 148 102 13 350 3 37 63 83 92 92 92 94 97 98 98 96 95 93 92 94 96 96 96 95 94 95 93 91 89 87 86 86 83 82 83 82 86 97 104 104 117 149 164 186 254 265 270 274 269 271 272 252 235 235 228 204 182 165 166 161 151 176 195 201 205 204 201 197 188 180 183 191 194 199 204 205 204 200 196 200 210 222 235 246
96 94 132 142 124 75 347 0 94 103 104 104 101 98 97 96 96 96 94 93 91 90 91 92 92 92 91 90 91 91 90 87 84 83 81 78 79 84 90 109 128 133 136 148 171 192 253 268 250 251 255 245 243 246 236 228 222 192 156 145 147 151 145 153 186 202 206 210 212 208 198 190 190 200 202 198 199 200 197 197 202 208 216 227 232 235 235
144 155 171 168 146 131 193 180 147 124 116 112 108 104 99 96 96 94 93 92 90 89 89 91 92 92 90 89 90 91 90 86 82 81 80 77 82 91 111 135 143 137 127 126 140 148 148 173 206 234 238 224 223 226 214 194 171 145 130 128 135 140 142 158 182 201 210 214 217 215 209 206 212 228 221 201 193 191 192 200 214 224 230 227 215 211 217
151 161 168 164 140 130 150 154 147 133 121 114 110 106 101 97 96 96 95 93 88 83 82 83 88 91 91 89 89 90 88 87 85 83 78 71 69 74 106 143 151 141 124 126 141 159 174 189 204 221 227 218 212 200 176 155 141 128 117 114 124 132 139 148 164 187 203 212 215 213 214 220 229 233 216 195 188 191 200 216 230 233 227 217 209 212 224
62 126 147 142 124 126 138 144 140 130 120 114 110 106 100 95 90 87 86 86 87 88 85 80 80 83 84 81 80 79 78 78 78 77 72 65 59 51 53 84 122 176 192 191 187 188 200 209 208 211 209 193 185 177 162 149 138 125 110 104 115 130 140 147 161 183 193 204 212 213 217 223 227 222 205 195 196 205 225 246 243 230 222 219 218 223 230
101 115 122 121 120 123 130 133 127 120 118 115 111 105 102 99 95 92 89 88 90 94 95 89 83 80 78 75 72 69 67 67 66 64 62 57 48 42 41 46 56 78 202 211 199 198 209 214 207 203 197 183 180 175 163 151 140 125 112 110 121 137 147 152 163 182 189 197 208 218 224 222 215 209 205 205 211 227 254 263 249 235 230 227 227 232 236
103 112 114 111 109 112 118 118 111 111 116 117 114 113 113 112 111 109 107 105 103 99 95 91 85 79 77 76 73 67 64 62 58 56 55 49 40 33 27 22 21 23 1 244 218 213 217 220 216 213 206 193 185 179 169 157 144 132 124 127 134 144 151 154 165 184 192 197 202 211 220 217 209 207 212 217 228 247 263 264 254 245 241 240 240 241 240
101 110 113 107 96 97 105 107 104 110 116 115 114 116 116 114 113 112 110 111 109 103 96 89 82 79 79 77 73 69 63 55 47 43 43 41 38 29 19 13 8 359 342 267 230 220 218 220 221 220 215 205 194 187 178 165 154 145 139 141 149 160 167 170 188 203 202 202 202 204 208 210 212 220 231 240 248 255 258 257 252 249 250 253 251 248 246
88 91 93 88 74 77 92 102 110 113 110 105 107 109 108 108 107 104 101 100 97 93 89 83 75 69 66 61 55 52 46 36 26 20 18 20 23 20 14 12 5 358 353 322 228 210 212 220 223 221 218 210 202 198 190 177 170 165 157 151 159 177 192 207 233 233 216 209 208 210 213 219 228 235 241 244 246 245 244 244 242 238 238 242 245 248 251
75 78 84 83 77 78 87 94 99 99 94 92 93 91 87 87 82 75 74 74 70 69 69 63 55 50 45 38 28 22 20 17 13 9 5 0 354 346 345 351 354 356 356 349 289 209 207 216 221 220 218 214 211 209 201 188 183 181 176 169 178 204 221 237 247 236 218 210 211 215 220 224 229 230 231 231 233 233 233 231 227 228 235 242 248 253 255
67 78 93 97 97 96 95 90 86 86 86 85 82 77 74 73 71 68 65 55 50 54 53 46 41 36 28 18 8 5 5 5 6 4 359 352 344 328 314 310 314 326 341 347 332 235 212 212 215 217 216 214 213 212 206 199 196 194 192 198 222 231 231 235 231 213 200 198 202 208 214 216 215 215 216 219 222 224 223 218 219 233 248 254 257 261 259
89 92 98 104 107 109 108 103 93 84 78 75 75 76 75 73 74 74 64 49 45 46 41 34 27 18 4 353 347 347 344 346 352 352 348 345 339 324 305 287 277 282 302 319 312 263 219 209 210 213 215 215 215 213 210 207 203 199 204 224 245 238 220 208 196 181 174 176 182 189 193 192 187 186 191 199 208 214 218 222 233 249 259 261 263 265 258
114 106 102 104 103 100 104 106 93 74 62 50 43 47 49 51 51 48 40 33 28 22 19 15 6 351 333 315 312 311 305 309 317 323 326 328 326 319 306 290 273 261 250 249 253 243 226 218 212 206 205 211 219 220 220 218 213 212 222 239 242 221 196 179 170 162 157 158 163 167 170 173 176 184 196 211 224 231 237 245 255 265 269 269 269 266 252
114 101 104 115 104 82 90 99 92 87 85 76 59 53 48 44 39 31 22 14 4 355 348 335 319 307 296 290 287 280 281 290 295 294 297 302 306 309 302 290 283 271 248 231 223 221 224 226 217 205 199 205 223 230 233 233 229 227 232 234 218 196 181 170 163 158 154 159 172 186 197 203 214 228 240 248 255 260 263 266 271 276 278 275 273 266 247
164 144 144 149 146 136 134 126 114 109 108 102 96 83 58 41 32 25 21 19 16 10 1 344 326 307 293 288 285 283 287 291 292 292 291 289 292 298 296 283 273 267 252 236 225 221 223 225 220 212 207 211 227 239 246 251 245 234 225 212 194 181 172 166 171 187 207 224 231 233 235 240 246 253 261 270 277 281 282 281 281 281 278 273 270 257 234
142 137 137 142 144 146 149 141 124 116 109 97 82 67 54 47 45 40 38 35 30 24 17 8 358 343 322 305 295 292 293 293 294 297 296 293 295 298 295 280 242 221 240 230 222 222 225 225 222 217 215 223 240 252 254 253 243 222 205 194 184 175 171 173 181 196 217 230 234 234 236 243 251 259 269 279 285 287 286 282 279 277 272 268 263 242 217
126 129 130 132 130 124 120 112 101 93 88 83 75 66 61 60 57 54 52 46 40 36 31 21 13 7 359 346 333 322 316 314 311 310 312 314 312 305 297 288 93 78 306 230 213 219 226 227 226 225 227 238 253 251 233 219 205 189 182 181 178 174 172 174 181 202 226 235 238 241 245 253 263 272 280 286 287 284 279 275 270 265 257 254 245 222 206
113 115 113 107 99 93 90 86 81 77 74 73 71 68 64 62 62 62 59 54 49 45 41 34 29 29 28 26 24 22 23 26 21 13 12 5 353 355 41 74 79 73 68 101 123 142 167 183 209 226 231 238 232 204 181 165 160 164 167 169 171 177 188 198 213 234 243 243 247 255 262 270 277 281 284 285 281 273 265 260 256 250 243 240 233 220 214
93 94 93 88 82 79 78 77 77 80 78 74 71 67 64 66 69 67 60 54 49 45 43 41 41 41 40 42 47 50 53 58 63 68 68 62 57 62 72 79 88 109 126 121 114 110 109 106 107 122 136 143 160 168 163 150 149 162 165 162 169 214 229 225 228 239 246 252 260 267 271 274 278 279 277 271 264 263 261 256 250 246 242 239 236 232 231
85 88 89 86 81 77 74 74 78 83 80 75 70 67 66 71 74 66 55 48 44 42 43 44 45 46 47 51 56 57 60 64 69 73 75 76 76 79 83 89 106 132 135 126 116 111 108 104 105 117 123 122 142 165 171 174 184 191 196 206 224 228 221 216 224 239 249 256 261 263 264 264 263 262 265 264 260 260 259 256 256 258 255 251 249 245 242
78 80 81 80 78 75 71 69 72 75 75 71 67 66 65 68 67 60 52 47 43 41 42 46 50 53 56 62 67 69 71 76 80 82 83 84 89 100 109 113 118 128 129 120 114 117 118 109 102 117 133 152 180 188 186 187 190 193 195 191 190 194 204 216 229 238 243 245 241 236 236 245 254 263 271 267 259 256 258 259 260 259 257 258 258 254 251
72 71 70 70 68 64 62 61 63 68 69 65 62 60 57 55 54 51 49 48 45 42 42 48 53 56 58 62 66 68 70 75 82 83 81 77 76 87 125 143 149 143 115 108 111 118 122 120 115 113 117 129 144 154 156 157 155 150 150 162 174 187 201 211 213 210 204 196 190 194 205 224 242 256 264 265 265 266 265 263 262 262 262 263 264 262 261
74 70 68 67 64 61 59 58 60 64 67 64 61 59 54 49 47 45 43 44 46 45 44 48 53 57 58 60 62 64 69 74 76 75 73 72 74 79 90 102 108 106 104 105 107 112 117 118 119 122 126 130 135 138 140 143 146 151 161 174 183 187 188 186 183 181 180 182 189 202 217 226 235 249 259 263 266 267 266 266 269 269 268 268 269 268 267
78 75 71 68 65 61 60 58 58 61 62 61 59 58 54 51 51 50 45 44 45 46 46 47 50 54 58 61 64 67 70 71 71 70 69 70 75 83 90 95 98 100 101 102 106 113 119 122 124 129 134 138 141 143 144 145 149 155 165 172 172 170 169 169 171 176 181 188 199 212 225 235 242 253 262 267 271 274 275 275 275 273 269 268 267 264 262
79 76 71 68 63 59 56 56 56 56 56 55 54 53 50 48 49 49 46 45 44 43 45 47 48 48 50 56 64 71 74 72 70 68 65 65 68 76 84 90 90 90 94 102 111 119 124 130 133 134 134 135 137 138 139 143 149 156 161 162 160 158 160 167 175 182 187 193 199 207 220 242 259 271 278 281 283 286 286 286 287 286 281 275 269 264 261
80 77 72 67 61 54 50 48 46 45 45 45 47 48 48 46 45 43 42 40 37 36 37 39 40 39 40 44 49 57 64 68 67 65 64 63 62 65 75 86 91 91 98 115 130 134 134 135 137 140 142 142 144 142 140 143 151 157 161 162 161 163 172 186 194 195 197 199 204 214 244 287 301 303 301 296 291 290 291 294 297 296 292 286 280 273 266
80 77 70 61 50 42 37 36 35 34 35 37 42 45 45 43 42 40 37 34 32 31 31 30 29 30 32 34 36 38 42 43 42 43 47 50 51 54 65 81 100 119 128 135 146 154 153 151 153 156 154 151 151 147 144 150 160 168 173 178 185 191 194 198 201 204 208 220 241 264 283 295 300 301 303 303 303 302 302 304 306 304 298 292 288 282 273
77 71 57 43 35 29 25 24 25 26 29 35 39 39 36 34 33 33 33 32 30 29 29 30 28 27 26 25 25 27 28 27 21 15 12 12 18 29 44 61 110 154 161 166 176 178 171 168 170 172 170 167 170 173 173 176 184 195 208 222 237 239 222 207 207 218 238 256 269 278 286 291 295 298 301 305 307 307 307 308 309 307 302 296 291 287 281
45 27 0 351 356 5 11 15 17 20 24 29 28 23 21 21 20 19 23 28 30 29 30 30 30 27 25 22 20 19 19 18 15 8 1 354 348 345 343 331 251 204 191 192 196 196 189 184 184 188 192 196 200 207 215 219 223 234 246 254 257 252 236 223 229 251 266 268 273 277 281 286 292 296 299 301 303 304 304 306 306 307 306 302 294 286 281
18 13 6 358 349 347 355 6 9 10 14 18 14 6 5 8 9 9 11 18 24 27 27 25 23 21 20 19 18 16 15 14 11 3 356 350 343 334 330 320 296 264 239 226 221 217 210 203 202 211 221 224 221 220 223 228 239 255 267 273 273 264 250 243 249 260 268 271 276 282 287 292 296 300 300 299 298 297 298 299 300 302 304 304 297 286 277
19 18 17 14 4 358 0 7 4 354 351 350 346 343 346 352 358 2 2 0 2 6 7 5 3 1 0 0 1 0 0 1 360 353 346 341 334 325 319 314 306 295 278 260 247 239 231 225 223 227 235 238 235 231 229 232 238 244 250 260 269 271 269 267 270 274 280 284 286 289 293 298 301 302 301 298 295 295 297 298 297 298 302 306 304 295 283
34 50 35 13 2 360 1 0 342 317 314 317 318 324 332 339 347 353 354 352 350 350 348 346 348 351 346 339 336 336 334 333 332 329 324 320 317 314 311 305 298 293 288 280 270 259 249 242 238 237 240 243 244 242 240 242 245 247 249 253 257 262 267 272 276 279 282 284 284 286 290 294 298 300 299 295 290 290 294 296 296 295 297 300 303 303 295
9 36 331 314 324 336 342 336 315 300 297 300 305 311 316 321 328 338 345 346 345 343 339 338 343 350 348 338 330 326 321 317 314 311 305 298 293 291 293 296 295 290 284 279 275 269 263 257 253 249 248 249 251 251 251 251 253 255 256 258 260 263 266 268 271 273 275 277 278 280 285 288 289 291 291 290 286 283 286 290 292 291 290 290 294 301 302
Height
1405 1403 1404 1406 1410 1411 1410 1412 1414 1415 1418 1420 1422 1422 1420 1424 1432 1432 1427 1431 1434 1427 1421 1419 1416 1415 1415 1412 1410 1410 1411 1412 1414 1416 1416 1417 1420 1422 1424 1426 1426 1428 1430 1433 1437 1441 1444 1447 1450 1453 1456 1459 1461 1463 1466 1468 1470 1472 1473 1474 1476 1479 1481 1482 1482 1481 1480 1481 1483 1486 1489 1496 1505 1507 1509 1513 1515 1516 1517 1517 1517 1517 1517 1520 1524 1527 1529
1402 1401 1401 1403 1407 1409 1408 1407 1408 1408 1411 1413 1414 1415 1415 1418 1420 1419 1421 1427 1426 1419 1414 1411 1408 1407 1407 1407 1407 1408 1409 1410 1411 1413 1414 1415 1417 1419 1420 1421 1422 1425 1428 1431 1435 1438 1441 1444 1447 1450 1453 1455 1458 1460 1463 1465 1467 1469 1471 1471 1473 1476 1478 1478 1477 1478 1478 1479 1481 1482 1485 1492 1502 1508 1511 1514 1514 1514 1513 1513 1513 1513 1513 1515 1519 1524 1527
1404 1400 1399 1402 1405 1407 1407 1405 1403 1404 1407 1408 1409 1409 1410 1415 1417 1415 1416 1422 1420 1411 1405 1404 1404 1405 1406 1407 1407 1406 1406 1407 1409 1410 1411 1412 1414 1416 1417 1418 1419 1422 1426 1429 1432 1435 1438 1441 1444 1447 1450 1452 1455 1457 1460 1461 1463 1466 1468 1469 1471 1473 1474 1474 1474 1475 1476 1477 1477 1480 1481 1485 1494 1503 1509 1510 1509 1507 1507 1508 1508 1508 1508 1509 1514 1520 1524
1407 1398 1399 1402 1401 1404 1406 1404 1401 1402 1405 1407 1407 1406 1407 1411 1415 1416 1419 1422 1417 1406 1402 1403 1404 1404 1406 1405 1403 1403 1403 1405 1406 1407 1407 1409 1411 1413 1414 1415 1416 1420 1424 1426 1429 1432 1435 1438 1442 1444 1447 1449 1452 1454 1457 1460 1462 1464 1466 1467 1468 1470 1471 1471 1472 1473 1474 1475 1477 1479 1482 1485 1490 1494 1497 1499 1499 1498 1500 1501 1502 1504 1504 1505 1510 1517 1521
1407 1398 1398 1399 1402 1413 1414 1402 1396 1398 1400 1402 1403 1403 1403 1403 1406 1413 1416 1412 1405 1400 1401 1404 1404 1403 1403 1401 1399 1399 1400 1401 1403 1403 1404 1404 1406 1408 1410 1411 1413 1417 1420 1423 1427 1430 1433 1436 1439 1442 1444 1447 1450 1453 1456 1458 1460 1461 1463 1464 1465 1467 1468 1469 1469 1470 1472 1474 1477 1478 1479 1481 1484 1485 1486 1488 1490 1491 1495 1497 1499 1502 1502 1503 1508 1515 1519
1408 1399 1396 1400 1412 1420 1409 1390 1385 1389 1392 1396 1399 1399 1399 1397 1397 1400 1402 1398 1395 1396 1399 1401 1400 1400 1400 1399 1399 1398 1398 1399 1400 1401 1401 1403 1404 1406 1407 1408 1411 1415 1419 1422 1425 1428 1432 1434 1437 1440 1443 1446 1449 1451 1453 1455 1457 1458 1460 1461 1463 1464 1465 1466 1467 1468 1470 1471 1473 1474 1474 1475 1478 1481 1483 1484 1485 1488 1491 1493 1496 1499 1500 1502 1507 1513 1517
1408 1401 1403 1415 1419 1407 1389 1381 1381 1383 1384 1386 1391 1394 1395 1395 1395 1395 1395 1393 1392 1393 1395 1395 1396 1396 1397 1398 1399 1398 1398 1397 1397 1398 1400 1401 1403 1405 1407 1408 1411 1414 1416 1419 1422 1426 1429 1432 1436 1440 1442 1444 1447 1449 1450 1452 1454 1455 1457 1459 1460 1461 1462 1463 1464 1465 1466 1468 1468 1470 1471 1472 1474 1477 1478 1480 1482 1485 1485 1487 1491 1494 1496 1500 1506 1510 1512
1407 1406 1409 1417 1410 1390 1382 1384 1383 1382 1384 1386 1391 1397 1397 1395 1395 1396 1394 1391 1389 1391 1393 1393 1394 1396 1396 1396 1397 1397 1397 1396 1395 1396 1397 1399 1401 1403 1405 1409 1411 1413 1414 1417 1421 1425 1428 1432 1436 1438 1440 1443 1445 1446 1448 1449 1451 1453 1455 1456 1458 1459 1460 1461 1461 1462 1463 1464 1465 1467 1469 1469 1470 1472 1473 1476 1479 1480 1480 1483 1486 1489 1492 1496 1500 1505 1508
1406 1407 1406 1404 1400 1392 1388 1386 1382 1382 1384 1384 1387 1393 1394 1393 1393 1393 1392 1390 1389 1389 1390 1391 1394 1395 1395 1395 1396 1396 1396 1395 1394 1395 1396 1398 1400 1401 1404 1407 1410 1413 1416 1419 1422 1425 1429 1432 1435 1437 1439 1441 1443 1444 1446 1448 1450 1452 1453 1454 1456 1457 1458 1459 1459 1460 1461 1462 1463 1464 1465 1466 1468 1468 1468 1471 1472 1472 1474 1478 1480 1484 1488 1491 1495 1500 1504
1404 1407 1408 1406 1406 1400 1389 1383 1382 1381 1381 1380 1380 1385 1390 1390 1389 1389 1389 1389 1388 1386 1387 1389 1392 1394 1396 1398 1396 1395 1395 1394 1393 1394 1394 1396 1398 1400 1402 1405 1408 1413 1417 1419 1422 1425 1428 1431 1434 1436 1439 1440 1441 1443 1445 1447 1449 1450 1452 1453 1454 1455 1456 1457 1457 1458 1459 1460 1461 1462 1463 1464 1465 1465 1466 1467 1467 1467 1470 1473 1476 1481 1485 1488 1491 1495 1498
1405 1409 1412 1410 1405 1396 1386 1383 1382 1381 1381 1379 1380 1386 1390 1387 1385 1386 1386 1385 1384 1383 1384 1386 1389 1392 1397 1399 1396 1395 1394 1393 1393 1393 1393 1393 1395 1398 1401 1403 1407 1411 1415 1418 1421 1425 1428 1431 1433 1435 1437 1438 1440 1442 1444 1446 1448 1449 1450 1451 1453 1454 1455 1455 1456 1456 1457 1458 1459 1460 1461 1461 1463 1464 1465 1466 1466 1467 1470 1474 1476 1479 1482 1484 1488 1492 1496
1406 1411 1412 1404 1394 1389 1386 1385 1383 1382 1380 1380 1386 1394 1391 1382 1381 1383 1382 1381 1381 1381 1382 1384 1386 1390 1394 1396 1396 1396 1395 1394 1393 1392 1392 1393 1395 1398 1401 1404 1407 1411 1414 1418 1421 1424 1427 1430 1433 1434 1436 1437 1439 1441 1443 1445 1446 1448 1449 1450 1451 1452 1453 1453 1454 1455 1455 1456 1457 1458 1458 1459 1459 1460 1462 1465 1467 1469 1471 1474 1477 1479 1481 1485 1489 1492 1495
1405 1411 1411 1402 1391 1387 1388 1386 1383 1382 1382 1383 1389 1391 1385 1379 1381 1381 1379 1379 1380 1380 1381 1383 1386 1390 1392 1393 1395 1396 1394 1394 1394 1393 1393 1395 1397 1400 1404 1407 1409 1412 1415 1418 1421 1424 1427 1429 1431 1433 1435 1436 1439 1441 1442 1444 1445 1447 1449 1449 1450 1451 1451 1452 1452 1453 1454 1454 1455 1455 1456 1456 1457 1458 1461 1464 1467 1469 1471 1474 1477 1480 1483 1486 1489 1492 1494
1405 1409 1410 1403 1393 1388 1388 1387 1383 1382 1384 1385 1384 1382 1381 1381 1381 1380 1380 1380 1380 1381 1383 1384 1387 1391 1393 1394 1395 1396 1395 1395 1396 1396 1396 1397 1400 1404 1407 1410 1412 1413 1415 1418 1421 1424 1426 1428 1430 1432 1434 1436 1438 1440 1441 1443 1445 1447 1448 1449 1449 1449 1450 1450 1451 1451 1452 1452 1452 1453 1453 1454 1455 1457 1460 1464 1466 1468 1471 1474 1477 1480 1483 1486 1488 1490 1492
1408 1411 1410 1407 1401 1392 1389 1389 1385 1381 1383 1384 1381 1381 1383 1383 1381 1381 1383 1384 1384 1384 1385 1386 1389 1391 1394 1396 1396 1397 1397 1397 1397 1399 1399 1399 1402 1404 1407 1409 1412 1414 1416 1419 1422 1424 1426 1428 1430 1432 1434 1436 1437 1439 1440 1441 1443 1445 1447 1448 1448 1448 1448 1449 1449 1449 1450 1450 1450 1451 1451 1453 1455 1457 1460 1463 1465 1468 1471 1474 1477 1479 1482 1485 1487 1489 1490
1411 1414 1413 1409 1404 1397 1393 1392 1388 1383 1382 1383 1382 1383 1384 1384 1384 1385 1386 1387 1389 1388 1387 1389 1391 1392 1393 1395 1396 1397 1399 1399 1399 1401 1402 1403 1404 1405 1406 1409 1411 1414 1417 1420 1423 1425 1427 1428 1430 1432 1434 1436 1437 1438 1439 1441 1442 1444 1445 1446 1447 1447 1447 1447 1448 1448 1448 1448 1449 1449 1450 1452 1455 1457 1460 1463 1466 1468 1471 1474 1476 1479 1481 1484 1485 1486 1487
1409 1408 1407 1404 1402 1399 1396 1393 1390 1387 1385 1385 1385 1385 1385 1385 1386 1386 1387 1390 1392 1392 1392 1392 1392 1392 1394 1396 1397 1399 1400 1401 1402 1403 1405 1406 1407 1408 1409 1411 1412 1414 1416 1419 1423 1426 1428 1429 1430 1432 1435 1436 1438 1439 1440 1441 1442 1443 1444 1445 1445 1445 1446 1446 1447 1447 1448 1448 1448 1449 1450 1452 1455 1457 1459 1462 1465 1468 1470 1473 1475 1477 1479 1480 1481 1482 1483
1406 1404 1405 1404 1402 1400 1398 1395 1394 1392 1389 1388 1388 1388 1387 1387 1388 1388 1389 1391 1393 1395 1396 1394 1394 1395 1397 1397 1399 1401 1402 1404 1405 1405 1407 1409 1410 1411 1413 1414 1415 1416 1417 1419 1422 1425 1427 1429 1430 1432 1435 1437 1438 1439 1440 1441 1442 1442 1443 1443 1443 1444 1444 1445 1446 1447 1448 1448 1449 1450 1451 1453 1455 1457 1459 1461 1464 1467 1469 1472 1474 1475 1476 1477 1478 1479 1480
1404 1406 1406 1404 1403 1402 1401 1399 1398 1395 1393 1392 1392 1391 1391 1391 1391 1392 1392 1394 1396 1397 1398 1397 1397 1398 1399 1399 1401 1403 1404 1406 1407 1407 1409 1410 1412 1413 1414 1415 1417 1418 1419 1421 1423 1424 1426 1428 1429 1431 1434 1436 1437 1438 1439 1440 1441 1441 1441 1441 1441 1442 1442 1443 1444 1446 1447 1448 1449 1450 1452 1454 1456 1458 1459 1462 1464 1467 1469 1471 1473 1473 1473 1474 1475 1476 1477
1398 1400 1401 1402 1404 1404 1403 1402 1401 1398 1396 1395 1395 1395 1395 1395 1394 1395 1395 1396 1398 1399 1400 1401 1401 1401 1401 1402 1402 1404 1405 1407 1408 1409 1410 1411 1412 1414 1415 1416 1417 1418 1420 1422 1423 1424 1424 1426 1428 1430 1432 1433 1434 1435 1436 1438 1439 1439 1439 1439 1439 1440 1440 1441 1443 1445 1446 1447 1448 1450 1453 1455 1457 1458 1460 1462 1464 1466 1468 1470 1471 1471 1472 1472 1473 1474 1476
1397 1398 1400 1404 1405 1405 1405 1404 1403 1401 1398 1397 1399 1400 1400 1398 1397 1397 1397 1398 1400 1403 1405 1405 1404 1403 1403 1404 1404 1405 1407 1408 1409 1410 1411 1412 1413 1414 1416 1417 1418 1419 1420 1421 1422 1422 1423 1425 1427 1428 1429 1430 1430 1432 1434 1436 1438 1438 1437 1437 1438 1439 1439 1440 1442 1444 1445 1447 1448 1451 1453 1455 1457 1459 1460 1462 1463 1465 1467 1468 1469 1470 1470 1471 1472 1473 1474
1395 1393 1396 1398 1398 1402 1406 1405 1404 1403 1400 1399 1401 1402 1402 1402 1401 1401 1400 1401 1404 1406 1408 1409 1407 1406 1405 1406 1406 1406 1407 1408 1410 1412 1413 1414 1415 1416 1417 1418 1418 1419 1419 1419 1420 1421 1423 1425 1427 1428 1428 1429 1430 1431 1433 1435 1436 1436 1435 1436 1437 1439 1439 1440 1442 1443 1445 1446 1448 1450 1453 1455 1457 1459 1460 1461 1462 1463 1465 1467 1468 1469 1469 1469 1470 1471 1471
1389 1385 1389 1391 1393 1398 1404 1405 1406 1406 1403 1402 1403 1404 1404 1404 1404 1403 1403 1403 1405 1408 1411 1412 1411 1408 1408 1408 1408 1407 1408 1410 1411 1413 1415 1416 1417 1417 1418 1418 1418 1418 1418 1418 1420 1422 1423 1425 1426 1427 1427 1428 1429 1431 1432 1433 1434 1434 1434 1435 1437 1438 1439 1441 1442 1443 1445 1446 1448 1450 1452 1454 1456 1458 1459 1460 1461 1463 1465 1466 1467 1467 1467 1467 1468 1469 1470
1389 1388 1391 1392 1393 1397 1403 1407 1408 1407 1405 1405 1406 1404 1403 1404 1404 1404 1404 1404 1406 1410 1414 1416 1415 1412 1410 1409 1409 1409 1410 1410 1412 1414 1416 1417 1417 1418 1417 1417 1417 1417 1418 1419 1421 1422 1423 1424 1425 1426 1426 1427 1428 1430 1431 1432 1432 1433 1434 1435 1437 1438 1439 1441 1442 1443 1445 1446 1447 1449 1451 1453 1455 1457 1459 1460 1461 1463 1464 1465 1465 1465 1465 1466 1467 1467 1468
1391 1392 1394 1395 1396 1399 1404 1408 1408 1407 1406 1407 1406 1405 1404 1404 1405 1407 1408 1409 1412 1415 1417 1417 1417 1414 1410 1409 1410 1411 1411 1412 1413 1415 1417 1418 1418 1419 1418 1418 1418 1417 1418 1419 1420 1421 1422 1422 1423 1424 1425 1426 1428 1429 1430 1431 1431 1433 1434 1435 1437 1438 1440 1441 1442 1443 1444 1445 1447 1448 1450 1452 1454 1456 1458 1460 1461 1462 1463 1464 1464 1464 1464 1465 1465 1466 1466
1395 1397 1398 1398 1400 1402 1405 1407 1408 1407 1407 1408 1408 1407 1408 1408 1409 1411 1413 1415 1418 1419 1418 1417 1415 1413 1412 1412 1413 1414 1414 1415 1416 1417 1418 1419 1419 1418 1418 1417 1417 1417 1417 1418 1419 1419 1420 1421 1422 1423 1424 1425 1427 1428 1429 1430 1431 1432 1433 1435 1437 1439 1440 1441 1442 1443 1444 1445 1446 1448 1449 1451 1454 1456 1458 1459 1460 1461 1462 1462 1462 1462 1463 1463 1464 1464 1465
1398 1400 1400 1400 1402 1405 1406 1407 1408 1409 1410 1410 1410 1411 1412 1412 1413 1414 1416 1418 1419 1419 1418 1416 1415 1414 1414 1414 1415 1416 1417 1417 1417 1418 1418 1418 1418 1417 1417 1416 1416 1416 1417 1417 1418 1418 1419 1420 1421 1422 1424 1425 1427 1427 1429 1430 1430 1431 1433 1435 1437 1439 1440 1441 1442 1443 1444 1445 1446 1448 1449 1451 1454 1456 1457 1458 1459 1459 1460 1460 1460 1460 1461 1462 1462 1463 1464
1401 1403 1402 1402 1405 1407 1408 1409 1410 1411 1411 1411 1412 1413 1414 1414 1415 1416 1417 1417 1417 1416 1415 1415 1415 1414 1415 1415 1416 1417 1417 1417 1417 1417 1417 1417 1417 1417 1416 1416 1416 1416 1416 1416 1417 1417 1418 1419 1420 1421 1423 1425 1426 1427 1428 1429 1430 1431 1433 1435 1437 1438 1439 1440 1441 1442 1443 1444 1446 1447 1449 1451 1453 1455 1456 1456 1457 1457 1457 1458 1458 1458 1459 1460 1461 1461 1462
1406 1406 1405 1405 1407 1409 1410 1411 1412 1412 1412 1412 1413 1413 1413 1413 1414 1414 1414 1414 1414 1414 1414 1414 1414 1414 1415 1415 1416 1416 1416 1417 1417 1416 1416 1416 1416 1416 1416 1416 1416 1416 1416 1416 1416 1416 1416 1417 1419 1421 1423 1424 1425 1427 1428 1429 1430 1432 1433 1434 1436 1437 1438 1439 1440 1441 1442 1444 1445 1447 1449 1451 1452 1453 1453 1454 1454 1455 1455 1456 1456 1457 1458 1458 1459 1460 1460
1412 1410 1408 1409 1411 1412 1413 1414 1415 1415 1415 1415 1414 1414 1414 1414 1414 1414 1414 1414 1414 1414 1414 1414 1415 1415 1415 1415 1415 1415 1416 1416 1416 1416 1416 1416 1415 1416 1416 1416 1416 1416 1416 1416 1415 1415 1415 1416 1418 1420 1422 1424 1425 1427 1428 1429 1430 1432 1433 1434 1436 1437 1438 1439 1440 1441 1442 1443 1445 1447 1448 1449 1449 1450 1451 1451 1452 1453 1453 1454 1455 1456 1456 1457 1457 1458 1458
1415 1413 1411 1411 1413 1414 1416 1417 1418 1418 1418 1417 1417 1416 1416 1416 1415 1415 1415 1415 1414 1414 1414 1414 1415 1415 1415 1415 1415 1415 1415 1415 1416 1416 1416 1415 1415 1415 1415 1415 1415 1415 1415 1415 1415 1415 1415 1415 1417 1419 1421 1423 1425 1426 1428 1429 1430 1431 1433 1434 1435 1436 1437 1438 1439 1441 1442 1443 1444 1446 1446 1447 1448 1448 1449 1450 1450 1451 1452 1453 1454 1454 1455 1455 1455 1456 1456
1416 1415 1413 1413 1414 1415 1417 1418 1419 1419 1418 1418 1418 1417 1417 1416 1416 1416 1416 1415 1415 1415 1415 1415 1415 1415 1416 1415 1415 1415 1415 1415 1415 1415 1415 1415 1415 1414 1414 1414 1413 1413 1413 1414 1414 1414 1415 1415 1417 1419 1421 1423 1425 1426 1427 1429 1430 1431 1432 1433 1434 1435 1436 1438 1439 1440 1441 1442 1444 1445 1445 1446 1447 1447 1448 1449 1449 1450 1451 1452 1452 1453 1453 1453 1453 1453 1454
1418 1417 1416 1416 1416 1417 1417 1418 1418 1419 1418 1418 1418 1418 1418 1418 1417 1417 1417 1416 1416 1415 1415 1415 1415 1415 1415 1415 1414 1414 1414 1414 1414 1414 1414 1414 1414 1414 1413 1413 1412 1412 1412 1412 1413 1413 1414 1414 1416 1418 1420 1422 1424 1425 1427 1428 1429 1430 1431 1432 1433 1434 1435 1436 1438 1439 1440 1441 1443 1443 1444 1445 1446 1446 1447 1448 1448 1449 1450 1450 1450 1450 1450 1450 1450 1451 1452
1419 1419 1419 1419 1419 1420 1420 1420 1420 1419 1419 1419 1419 1419 1418 1418 1418 1418 1418 1417 1417 1416 1415 1415 1414 1414 1414 1414 1413 1413 1413 1413 1413 1413 1413 1413 1413 1412 1412 1411 1411 1410 1410 1411 1412 1412 1413 1413 1414 1416 1418 1420 1422 1423 1424 1425 1427 1428 1429 1430 1432 1433 1434 1435 1436 1438 1439 1441 1442 1442 1443 1444 1445 1446 1446 1446 1447 1447 1448 1448 1448 1448 1447 1448 1448 1448 1450
1421 1421 1421 1421 1422 1422 1422 1422 1421 1420 1419 1418 1418 1418 1419 1419 1420 1420 1420 1419 1418 1417 1415 1414 1414 1413 1412 1412 1412 1412 1412 1412 1412 1412 1412 1411 1411 1411 1410 1409 1409 1408 1408 1409 1410 1411 1411 1412 1412 1414 1416 1418 1419 1421 1422 1423 1424 1426 1428 1430 1431 1432 1433 1434 1435 1437 1439 1440 1441 1442 1442 1443 1444 1444 1445 1445 1445 1445 1445 1445 1445 1445 1445 1445 1446 1446 1447
1422 1422 1422 1422 1422 1422 1422 1421 1420 1419 1419 1419 1419 1420 1420 1421 1421 1421 1421 1420 1418 1417 1416 1414 1413 1412 1411 1411 1411 1411 1411 1411 1411 1411 1411 1410 1409 1409 1408 1408 1408 1408 1408 1409 1409 1409 1410 1411 1412 1413 1415 1416 1418 1419 1420 1420 1422 1425 1428 1429 1431 1432 1432 1434 1435 1436 1437 1439 1440 1440 1440 1441 1442 1443 1443 1443 1443 1443 1443 1443 1443 1443 1444 1444 1444 1445 1446
1422 1422 1422 1422 1422 1422 1421 1420 1420 1419 1419 1420 1420 1421 1421 1422 1422 1421 1421 1420 1418 1417 1415 1413 1412 1411 1410 1410 1410 1410 1410 1410 1410 1410 1409 1409 1408 1408 1407 1408 1408 1409 1409 1410 1410 1410 1410 1411 1412 1413 1414 1416 1417 1418 1419 1420 1422 1425 1427 1428 1430 1431 1432 1434 1435 1436 1436 1437 1438 1438 1439 1440 1441 1441 1441 1442 1442 1442 1442 1442 1442 1442 1443 1443 1443 1444 1445
1422 1422 1422 1422 1422 1421 1421 1421 1420 1421 1421 1421 1421 1422 1422 1422 1422 1421 1420 1419 1418 1416 1414 1413 1412 1411 1410 1410 1409 1409 1409 1409 1409 1408 1408 1408 1407 1407 1407 1408 1409 1410 1411 1411 1411 1411 1412 1413 1414 1414 1415 1416 1418 1419 1419 1421 1423 1424 1426 1427 1428 1430 1432 1433 1436 1437 1437 1437 1437 1437 1438 1439 1439 1439 1440 1441 1441 1441 1441 1441 1441 1441 1442 1442 1442 1443 1443
1423 1423 1423 1423 1423 1422 1422 1422 1422 1422 1422 1422 1422 1422 1422 1421 1421 1420 1419 1418 1417 1416 1415 1414 1413 1412 1411 1411 1410 1410 1409 1409 1408 1408 1408 1408 1408 1409 1409 1410 1411 1412 1412 1412 1413 1413 1414 1414 1415 1416 1417 1418 1418 1419 1420 1421 1422 1423 1424 1425 1427 1429 1431 1432 1434 1436 1437 1436 1436 1437 1437 1438 1438 1439 1439 1440 1440 1440 1440 1440 1440 1440 1440 1440 1441 1441 1442
1424 1424 1424 1424 1424 1423 1423 1423 1423 1423 1423 1422 1422 1422 1422 1421 1421 1420 1420 1419 1418 1417 1416 1415 1415 1414 1413 1412 1411 1410 1410 1409 1409 1409 1409 1410 1410 1410 1411 1411 1412 1413 1413 1413 1414 1414 1414 1415 1416 1416 1417 1417 1418 1420 1421 1421 1422 1422 1423 1424 1425 1428 1430 1431 1433 1434 1435 1435 1436 1436 1436 1437 1437 1438 1439 1439 1439 1439 1439 1439 1439 1439 1439 1439 1439 1440 1440
1425 1425 1425 1424 1424 1424 1423 1423 1424 1423 1424 1424 1423 1423 1422 1422 1421 1421 1420 1420 1419 1419 1418 1417 1416 1415 1414 1413 1412 1412 1411 1410 1410 1410 1410 1410 1410 1411 1411 1412 1412 1412 1413 1413 1414 1414 1415 1415 1416 1417 1417 1418 1419 1420 1421 1421 1422 1422 1423 1424 1425 1427 1429 1430 1432 1433 1434 1434 1435 1435 1436 1436 1437 1437 1438 1438 1438 1438 1438 1438 1437 1437 1438 1438 1438 1438 1438
1427 1427 1426 1426 1426 1426 1426 1426 1426 1425 1425 1425 1425 1424 1424 1423 1422 1422 1421 1421 1420 1420 1419 1418 1417 1416 1416 1415 1414 1413 1413 1412 1412 1412 1411 1411 1411 1411 1412 1412 1413 1413 1413 1414 1414 1415 1416 1417 1417 1418 1418 1419 1419 1420 1421 1421 1422 1422 1423 1424 1426 1427 1428 1430 1431 1432 1433 1433 1434 1434 1435 1435 1436 1436 1436 1436 1436 1436 1436 1436 1436 1436 1436 1436 1436 1436 1437
1428 1428 1428 1428 1428 1428 1428 1428 1428 1427 1427 1426 1425 1425 1424 1423 1423 1422 1422 1421 1421 1420 1420 1419 1418 1417 1417 1416 1416 1415 1415 1414 1414 1413 1413 1413 1413 1413 1413 1414 1414 1414 1415 1415 1416 1416 1417 1417 1418 1419 1419 1420 1420 1421 1421 1421 1422 1423 1424 1424 1426 1427 1428 1429 1430 1431 1431 1432 1432 1433 1433 1434 1434 1434 1434 1434 1434 1434 1434 1434 1434 1434 1434 1434 1435 1435 1435
1430 1430 1430 1430 1430 1430 1430 1430 1429 1428 1427 1426 1426 1425 1424 1424 1423 1423 1422 1422 1421 1421 1420 1420 1419 1418 1418 1418 1417 1417 1416 1416 1415 1415 1415 1415 1415 1415 1415 1415 1415 1415 1416 1416 1417 1417 1418 1418 1418 1419 1419 1420 1420 1421 1421 1422 1422 1423 1424 1424 1426 1426 1427 1428 1429 1430 1430 1431 1431 1431 1432 1432 1432 1432 1432 1432 1432 1432 1432 1432 1432 1432 1432 1432 1432 1432 1433
1431 1431 1431 1431 1431 1431 1430 1430 1429 1428 1428 1427 1426 1426 1425 1425 1425 1424 1424 1423 1423 1422 1421 1421 1420 1419 1419 1418 1418 1417 1417 1416 1416 1416 1415 1415 1415 1415 1415 1415 1416 1416 1416 1416 1417 1417 1418 1418 1419 1419 1420 1420 1421 1421 1421 1422 1422 1423 1424 1425 1425 1426 1427 1427 1428 1428 1429 1429 1430 1430 1430 1430 1430 1430 1431 1431 1431 1431 1431 1431 1430 1430 1430 1430 1430 1430 1430
1432 1432 1432 1432 1432 1431 1431 1430 1430 1429 1428 1428 1427 1427 1427 1427 1427 1426 1426 1425 1424 1423 1422 1421 1420 1419 1419 1418 1418 1418 1417 1417 1416 1416 1416 1415 1415 1415 1415 1416 1416 1416 1417 1417 1417 1418 1418 1419 1419 1419 1420 1420 1421 1421 1422 1422 1423 1423 1424 1424 1425 1426 1426 1426 1427 1427 1428 1428 1428 1428 1428 1428 1429 1429 1429 1429 1429 1429 1429 1428 1428 1428 1427 1427 1427 1427 1427
1433 1433 1433 1433 1432 1432 1431 1431 1430 1430 1429 1429 1429 1429 1429 1429 1428 1427 1426 1425 1424 1423 1422 1421 1420 1420 1419 1419 1418 1418 1417 1417 1417 1416 1416 1416 1416 1416 1416 1416 1416 1417 1417 1417 1418 1418 1418 1419 1419 1420 1420 1420 1421 1421 1422 1422 1423 1423 1423 1424 1424 1425 1425 1425 1426 1426 1426 1426 1426 1427 1427 1427 1427 1427 1427 1427 1427 1427 1427 1426 1426 1426 1425 1425 1424 1424 1424
1433 1433 1433 1433 1433 1432 1432 1432 1431 1431 1431 1431 1430 1430 1430 1430 1429 1428 1427 1426 1425 1423 1422 1422 1421 1421 1420 1420 1419 1419 1418 1418 1417 1417 1417 1417 1417 1417 1417 1417 1417 1417 1417 1418 1418 1418 1418 1418 1419 1419 1420 1420 1420 1421 1421 1421 1422 1422 1422 1422 1423 1423 1424 1424 1425 1425 1425 1425 1425 1425 1425 1425 1426 1426 1425 1425 1425 1425 1425 1424 1424 1424 1423 1423 1422 1422 1422
1433 1433 1433 1433 1433 1432 1432 1432 1432 1432 1432 1432 1431 1431 1430 1430 1429 1428 1427 1426 1425 1424 1424 1423 1422 1422 1421 1421 1420 1420 1419 1419 1418 1418 1418 1418 1418 1417 1418 1418 1418 1417 1417 1417 1417 1418 1418 1418 1418 1419 1419 1419 1420 1420 1420 1420 1420 1421 1421 1421 1422 1422 1423 1423 1423 1423 1424 1424 1424 1424 1424 1424 1424 1424 1424 1423 1423 1423 1423 1423 1422 1422 1421 1421 1420 1420 1420
1433 1433 1433 1433 1433 1433 1433 1433 1433 1433 1433 1432 1432 1431 1431 1430 1429 1428 1427 1427 1426 1425 1425 1424 1424 1423 1422 1422 1421 1421 1420 1419 1419 1419 1418 1418 1418 1418 1417 1417 1417 1417 1417 1417 1417 1417 1417 1417 1417 1417 1418 1418 1418 1418 1419 1419 1419 1420 1420 1420 1421 1421 1421 1422 1422 1422 1422 1422 1422 1422 1422 1422 1422 1422 1422 1421 1421 1421 1421 1420 1420 1420 1419 1419 1418 1418 1418
1433 1433 1433 1433 1433 1433 1433 1433 1433 1433 1433 1432 1432 1432 1431 1430 1429 1429 1428 1427 1426 1426 1425 1424 1424 1423 1423 1422 1422 1421 1420 1420 1419 1419 1418 1418 1417 1417 1417 1416 1416 1416 1416 1416 1416 1416 1416 1416 1416 1416 1416 1416 1417 1417 1417 1418 1418 1418 1419 1419 1419 1419 1420 1420 1420 1420 1420 1420 1420 1420 1420 1420 1420 1420 1419 1419 1419 1419 1419 1418 1418 1418 1418 1417 1417 1416 1416
1434 1434 1434 1434 1433 1433 1433 1433 1433 1433 1432 1432 1432 1431 1431 1430 1429 1429 1428 1427 1426 1425 1425 1424 1423 1423 1423 1422 1421 1421 1420 1419 1419 1418 1418 1417 1417 1416 1416 1415 1415 1414 1414 1414 1414 1414 1414 1414 1414 1414 1414 1414 1414 1415 1415 1415 1416 1416 1416 1416 1417 1417 1417 1417 1417 1418 1418 1418 1418 1418 1418 1418 1418 1418 1417 1417 1417 1417 1416 1416 1416 1416 1416 1415 1415 1414 1414